Location: Ceske Budejovice
(48.9830°N, 14.4670°E)
Time: 16:01:56
(UTC+02:00)

DX 1 - Pass Details

Date: 25 August 2019
Orbit: 620 x 630 km, 98.4° (Epoch: 20 September)

Event Time Altitude Azimuth Distance (km) Brightness Sun altitude
Rises 03:02:34 0° 119° (ESE) 2,891 ? -24.7°
Reaches altitude 10° 03:05:21 10° 100° (E) 1,991 ? -24.5°
Maximum altitude 03:08:10 17° 59° (ENE) 1,569 ? -24.2°
Drops below altitude 10° 03:11:00 10° 18° (NNE) 2,003 ? -23.9°
Sets 03:13:49 0° 359° (N) 2,916 ? -23.7°
